LEDGEWOOD Weather Reports


time (UTC)temp
C
wind
direction
speed
KPH
gust
KPH
rain 1hr
cm
rain 24hr
cm
rain mn
cm
humidity
%
barometer
mb
20260507221600 14 159 1.6 8.0 0.00 0.05 0.00 34 1004.1
20260507220059 15 278 1.6 9.7 0.00 0.05 0.00 35 1004.0
20260507214608 15 255 1.6 11.3 0.00 0.36 0.00 34 1004.0
20260507213103 15 245 3.2 9.7 0.00 0.36 0.00 33 1004.1
20260507211615 16 282 1.6 11.3 0.00 0.36 0.00 33 1004.0
20260507210106 15 16 3.2 8.0 0.00 0.36 0.00 34 1004.1
20260507204601 16 289 4.8 11.3 0.00 0.64 0.00 34 1003.8
20260507203110 16 224 3.2 9.7 0.00 0.64 0.00 34 1003.9
20260507201617 16 273 4.8 11.3 0.00 0.64 0.00 32 1003.8
20260507200110 16 262 4.8 14.5 0.00 0.64 0.00 34 1003.9
20260507194557 16 239 4.8 12.9 0.00 0.74 0.00 34 1004.0
20260507193059 16 267 3.2 9.7 0.00 0.74 0.00 34 1004.0
20260507191603 16 79 1.6 6.4 0.00 0.74 0.00 37 1004.2
20260507190108 15 285 6.4 11.3 0.00 0.74 0.00 36 1004.5
20260507184619 15 275 3.2 12.9 0.00 1.02 0.00 36 1004.7
20260507183058 16 295 4.8 11.3 0.00 1.02 0.00 35 1004.7
20260507181601 16 23 4.8 14.5 0.00 1.02 0.00 33 1004.7
20260507180059 16 345 3.2 12.9 0.00 1.02 0.00 34 1004.8
20260507174558 16 255 4.8 17.7 0.00 1.02 0.00 35 1004.7
20260507173103 16 278 6.4 12.9 0.00 1.02 0.00 38 1004.7
20260507171606 16 342 3.2 12.9 0.00 1.02 0.00 39 1004.6
20260507170104 16 290 4.8 12.9 0.00 1.02 0.00 39 1005.1
20260507164605 16 238 3.2 12.9 0.00 1.02 0.00 46 1005.1
20260507163058 15 144 1.6 8.0 0.00 1.02 0.00 50 1005.2
20260507161558 15 261 4.8 11.3 0.00 1.02 0.00 52 1005.5
20260507160058 16 304 3.2 8.0 0.00 1.02 0.00 52 1005.4
20260507154600 14 351 3.2 8.0 0.00 1.02 0.00 54 1005.8
20260507153106 15 228 1.6 9.7 0.00 1.02 0.00 59 1005.9
20260507151559 14 266 1.6 9.7 0.00 1.02 0.00 55 1006.1
20260507150058 14 277 3.2 9.7 0.00 1.02 0.00 59 1006.3
20260507144600 14 0 3.2 16.1 0.00 1.02 0.00 56 1006.1
20260507143107 13 262 4.8 12.9 0.00 1.02 0.00 58 1006.1
20260507141557 14 0 3.2 11.3 0.00 1.02 0.00 59 1006.0
20260507140100 14 257 3.2 11.3 0.00 1.02 0.00 61 1006.0
20260507134607 13 276 3.2 6.4 0.00 1.02 0.00 59 1005.9
20260507133134 13 96 3.2 9.7 0.00 1.02 0.00 60 1006.1
20260507131558 13 229 3.2 8.0 0.00 1.02 0.00 61 1006.2
20260507130108 12 281 3.2 9.7 0.00 1.02 0.00 67 1006.2
20260507124558 12 162 3.2 8.0 0.00 1.02 0.00 65 1006.2
20260507123106 11 241 1.6 8.0 0.00 1.02 0.00 65 1006.5
20260507121622 11 313 1.6 9.7 0.00 1.02 0.00 71 1006.7
20260507120109 10 200 0.0 4.8 0.00 1.02 0.00 75 1006.6
20260507114640 10 0 1.6 3.2 0.00 1.02 0.00 77 1006.6
20260507113105 8 0 0.0 1.6 0.00 1.02 0.00 83 1006.5
20260507111612 8 227 0.0 3.2 0.00 1.02 0.00 86 1006.5
20260507110109 8 0 0.0 0.0 0.00 1.02 0.00 86 1006.2
20260507104601 7 0 0.0 1.6 0.00 1.02 0.00 87 1006.2
20260507103101 7 0 0.0 3.2 0.00 1.02 0.00 86 1006.0
20260507101614 7 0 0.0 3.2 0.00 1.02 0.00 86 1006.1
20260507100104 7 0 0.0 1.6 0.00 1.02 0.00 87 1006.4
20260507094605 7 290 0.0 4.8 0.00 1.02 0.00 89 1006.2
20260507093101 8 0 1.6 8.0 0.00 1.02 0.00 87 1005.8
20260507091558 8 217 0.0 6.4 0.00 1.02 0.00 88 1005.9
20260507084602 8 0 0.0 3.2 0.00 1.02 0.00 90 1005.4
20260507083059 8 0 0.0 4.8 0.00 1.02 0.00 90 1005.4
20260507081601 8 304 0.0 3.2 0.00 1.02 0.00 89 1005.2
20260507080120 8 279 0.0 4.8 0.00 1.02 0.00 89 1005.8
20260507074558 8 236 0.0 4.8 0.00 1.02 0.00 89 1005.6
20260507073109 8 227 0.0 4.8 0.00 1.02 0.00 88 1005.3
20260507071558 9 206 1.6 4.8 0.00 1.02 0.00 88 1005.4
20260507070059 9 226 3.2 8.0 0.00 1.02 0.00 88 1005.2
20260507064605 9 276 0.0 9.7 0.00 1.02 0.00 90 1005.2
20260507063105 9 283 0.0 4.8 0.00 1.02 0.00 90 1005.1
20260507061559 9 261 1.6 6.4 0.00 1.02 0.00 90 1004.9
20260507060059 10 134 0.0 4.8 0.00 1.02 0.00 91 1005.3
20260507054558 10 0 0.0 4.8 0.00 1.02 0.00 91 1005.3
20260507053118 10 0 0.0 3.2 0.00 1.02 0.00 91 1005.0
20260507051605 10 233 0.0 3.2 0.00 1.02 0.00 92 1005.2
20260507050058 10 215 0.0 3.2 0.00 1.02 0.00 90 1004.9
20260507044601 10 283 1.6 8.0 0.00 1.02 0.00 91 1005.3
20260507043059 10 0 1.6 6.4 0.00 1.02 0.00 91 1005.3
20260507041600 11 255 1.6 11.3 0.03 1.02 0.00 92 1005.2
20260507034600 11 183 3.2 9.7 0.03 1.02 1.02 92 1004.6
20260507033101 12 275 3.2 9.7 0.03 1.02 1.02 94 1004.7
20260507031600 13 229 1.6 9.7 0.00 0.99 0.99 93 1004.7
20260507024609 14 305 1.6 11.3 0.00 0.99 0.99 95 1004.1
20260507023101 15 11 3.2 6.4 0.00 0.99 0.99 96 1003.8
20260507021608 15 0 0.0 4.8 0.00 0.99 0.99 96 1003.5
20260507020114 15 0 0.0 4.8 0.00 0.99 0.99 96 1003.6
20260507014606 15 0 0.0 9.7 0.00 0.99 0.99 96 1003.9
20260507013101 15 0 0.0 3.2 0.00 0.99 0.99 96 1003.9
20260507011601 15 0 0.0 3.2 0.00 0.99 0.99 96 1003.9
20260507004608 15 207 0.0 1.6 0.00 0.99 0.99 96 1003.9
20260507003100 15 0 0.0 4.8 0.00 0.99 0.99 96 1003.9
20260507001601 15 240 0.0 4.8 0.03 0.99 0.99 96 1003.8
20260507000101 15 0 1.6 9.7 0.03 0.99 0.99 96 1003.7
20260506234559 15 126 1.6 6.4 0.03 0.99 0.99 95 1003.5
20260506233112 15 91 0.0 6.4 0.03 0.99 0.99 95 1003.4
20260506231602 15 0 0.0 4.8 0.00 0.97 0.97 95 1003.7
20260506230059 15 113 1.6 4.8 0.00 0.97 0.97 95 1003.7
20260506224600 15 94 1.6 12.9 0.10 0.97 0.97 95 1003.7
20260506223059 15 135 1.6 8.0 0.15 0.97 0.97 95 1003.9